Location: Córrego Montividiu
(13.2496°S, 48.8603°W)
Time: 10:59:01
(UTC+00:00)

Centaur D-1AR AC-38 - Pass Details

Date: 11 March 2026
Orbit: 594 x 36209 km, 21.1° (Epoch: 21 April)

Event Time Altitude Azimuth Distance (km) Brightness Sun altitude
Rises 21:29:54 0° 289° (WNW) 2,827 8.0 -0.3°
Reaches altitude 10° 21:31:29 10° 289° (WNW) 2,046 7.1 -0.7°
Maximum altitude 21:35:16 87° 17° (NNE) 984 4.1 -1.6°
Drops below altitude 10° 21:48:08 10° 107° (ESE) 6,486 7.6 -4.7°
Sets 22:00:05 0° 106° (ESE) 11,094 8.8 -7.6°
